Погода в Броварах

Украина / Киевская область     50°30′39″N   30°47′27″E
темп.,
°C
ветер,
м/с
пор.,
м/с
влажн.,
%
обл.,
%
осадки,
мм/ч
давл.,
гПа
погр.,
м
15 апреля, чт
чт1500:00+10з0171100 0.0 101311
03:00+9с1175100 0.0 101312
06:00+9всв3684100 0.0 1012132
09:00+10юв2279100 0.3 1012192
12:00+10ссв0184100 1.2 1012161
15:00+9ююз2492100 4.1 1011301
18:00+9ююз3493100 3.1 1010308
21:00+8ююз2295100 4.9 101098
16 апреля, пт
пт1600:00+8ю2494100 0.3 1010170
03:00+7ююв3694100 0.4 1009327
06:00+7юв3596100 0.1 1009271
09:00+8юв3594100 0.1 1010367
12:00+8юв4588100 0.1 1011494
15:00+8ююв3488100 0.1 1012547
18:00+8ююз1289100 0.0 1013354
21:00+7юз2492100 0.1 1015287
17 апреля, сб
сб1700:00+6з4692100 0.0 1016407
03:00+5з4692100 0.1 1017427
06:00+5з4593100 0.1 1018397
09:00+5з4591100 0.1 1020428
12:00+5з3485100 0.1 1021415
15:00+6з237987 0.1 1022365
18:00+9зсз237072 0.0 1022681
21:00+7зсз237877 0.0 102268
18 апреля, вс
вс1800:00+7з227567 0.0 102328
03:00+5ссз2281100 0.0 102227
06:00+4ссз118710 0.0 102310
09:00+8св117271 0.0 1023279
12:00+12в345934 0.0 10231133
15:00+14вюв454989 0.0 10221651
18:00+14вюв4654100 0.0 10211510
21:00+11в236661 0.0 102144
19 апреля, пн
пн1900:00+10в3772100 0.0 1021173
03:00+9в3881100 0.0 1020182
06:00+9в3890100 0.0 1019224
09:00+10в61181100 0.1 1018493
12:00+11вюв61179100 0.9 1018944
15:00+10в81388100 5.1 1015960
18:00+10в71493100 3.0 1013805
21:00+10в81593100 5.0 1010844